Location: Cherryland
(37.6794°N, 122.1033°W)
Time: 13:56:24
(UTC+00:00)

COSMO-SKYMED 1 - Pass Details

Date: 14 December 2025
Orbit: 578 x 580 km, 97.9° (Epoch: 17 January)

Event Time Altitude Azimuth Distance (km) Brightness Sun altitude
Rises 14:20:45 0° 191° (S) 2,784 6.0 -10.7°
Reaches altitude 10° 14:23:07 10° 203° (SSW) 1,890 5.0 -10.3°
Maximum altitude 14:26:40 28° 263° (W) 1,099 3.4 -9.6°
Drops below altitude 10° 14:30:15 10° 324° (NW) 1,902 4.5 -9.0°
Enters shadow 14:31:12 - 329° (NNW) 2,251 5.0 -8.8°
